Regional Weather Roundup
Issued by NWS Green Bay, WI

Home | Current Version | Previous Version | Text Only | Print | Product List | Glossary On
Versions: 1 2 3 4 5 6 7 8 9 10 11 12 13 14 15 16 17 18 19 20 21 22 23 24 25 26 27 28 29 30 31 32 33 34 35 36 37 38 39 40 41 42 43 44 45 46 47 48 49 50
591
ASUS43 KGRB 080411
RWRGRB

NORTH-CENTRAL AND NORTHEAST WISCONSIN REGIONAL WEATHER ROUNDUP
NATIONAL WEATHER SERVICE GREEN BAY WI
1000 PM CST WED DEC 07 2016

WIZ005-009-010>012-018-019-080500-
NORTH CENTRAL WISCONSIN

CITY           SKY/WX    TMP DP  RH WIND       PRES   REMARKS
IRONWOOD       NOT AVBL
MANITOWISH WTR LGT SNOW  15  12  90 W9        29.86S WCI   3
ARBOR VITAE    LGT SNOW  17  12  80 W12G20    29.88R WCI   4
EAGLE RIVER    LGT SNOW  16  10  77 W15G21    29.85S WCI   1
LAND O LAKES   FLURRIES  16  12  83 W8G17     29.85S WCI   5
RHINELANDER    FLURRIES  17  12  80 W17       29.89R WCI   1
PHILLIPS       LGT SNOW  14  10  83 W9G16     29.92R WCI   2
ANTIGO         FLURRIES  16  10  80 W16G24    29.91S WCI   0
TOMAHAWK       FLURRIES  16  10  79 W9        29.92S WCI   4
MERRILL        FLURRIES  17  11  78 W15       29.95S WCI   2
$$

WIZ013-073-080500-
NORTHEAST WISCONSIN

CITY           SKY/WX    TMP DP  RH WIND       PRES   REMARKS
IRON MOUNTAIN  NOT AVBL
MARINETTE      NOT AVBL
OCONTO         CLOUDY    22  12  64 W18G26    29.97S WCI   8
$$

WIZ017-030-035>037-045-080500-
CENTRAL WISCONSIN

CITY           SKY/WX    TMP DP  RH WIND       PRES   REMARKS
MEDFORD        FLURRIES  15   9  76 W14G20    29.95S WCI   0
WAUSAU         FLURRIES  17  11  77 W21G28    29.96R WCI   0
MOSINEE        FLURRIES  18  12  79 W18G24    29.98R WCI   2
MARSHFIELD     CLOUDY    17  10  74 W16G29    29.98R WCI   2
WISC RAPIDS    CLOUDY    19  12  74 W16G23    30.03S WCI   4
STEVENS POINT  CLOUDY    17  10  74 W9G21     30.00S WCI   6
WAUPACA        CLOUDY    22  13  67 W14G20    30.02S WCI  10
SHAWANO        CLOUDY    23  13  65 W10G23    29.98R
CLINTONVILLE   CLOUDY    21  12  68 W14G24    29.99S WCI   8
WAUTOMA        FLURRIES  20  13  74 W14       30.05  WCI   7
$$

WIZ038-039-048-051-080500-
FOX VALLEY

CITY           SKY/WX    TMP DP  RH WIND       PRES   REMARKS
NWS GREEN BAY  FLURRIES  23  14  68 W22G29    29.99S WCI   8
APPLETON       CLOUDY    19  10  68 W17G25    29.99S WCI   4
OSHKOSH        CLOUDY    21  11  65 W13G23    30.02S WCI   9
FOND DU LAC    MIX PCPN  21  10  62 W16G22    30.04S WCI   7
$$

WIZ022-050-052-080500-
EAST CENTRAL WISCONSIN

CITY           SKY/WX    TMP DP  RH WIND       PRES   REMARKS
EPHRAIM        CLOUDY    23  13  67 W14G28    29.91S
WASHINGTON ISL CLOUDY    24  15  68 W18G25    29.90S
STURGEON BAY   FLURRIES  23  14  68 W18G25    29.95S WCI   9
MANITOWOC      FLURRIES  23  15  71 MISG      30.01S
SHEBOYGAN      FLURRIES  22  13  68 W20G25    30.03S WCI   7
$$

LMZ563-521-522-541>543-080500-
LAKESHORE

STATION/POSITION TIME  TEMP    WIND        PRES    VSBY  WAVE
                       AIR SEA DIR/SP/G                  HT/PER
                 (UTC) (F)     (DEG/KT/KT) (MB)    (MI)  (FT/S)
SHEBOYGAN LKSHOR 0400   22     260/ 16/ 23 1017.9S
KEWAUNEE LKSHORE 0342   23     310/ 12/ 21 1014.9R
NORTHPORT PIER   0349   25     260/  9/ 19 1013.2S
SISTER BAY LKSHO 0336   26     300/ 23/ 28   N/A
CHAMBERS ISLAND  0340   24     230/ 11/ 19 1013.2R
MENOMINEE LKSHOR 0342   24     250/ 12/ 19 1013.2R
$$




USA.gov is the U.S. government's official web portal to all federal, state and local government web resources and services.